Location: Elstree
(51.6403°N, 0.2969°W)
Time: 15:08:55
(UTC+00:00)

SJ 16-02 - Pass Details

Date: 26 June 2021
Orbit: 606 x 616 km, 75.0° (Epoch: 29 July)

Event Time Altitude Azimuth Distance (km) Brightness Sun altitude
Rises 22:58:19 0° 332° (NNW) 2,877 6.5 -13.7°
Reaches altitude 10° 23:00:37 10° 326° (NW) 1,968 5.2 -13.7°
Maximum altitude 23:04:47 44° 255° (WSW) 840 2.0 -13.9°
Enters shadow 23:07:26 20° 191° (SSW) 1,405 2.6 -14.0°
